{"data":{"norad_id":69776,"intl_designator":"2026-151P","name":"KUIPER-00617","alt_names":[],"object_type":"PAYLOAD","status":"ACTIVE","operator":null,"country":"US","launch_date":"2026-07-02","launch_site_code":"AFETR","launch_vehicle":null,"mission":null,"orbit_class":"UNKNOWN","rcs_meters":null,"size_class":null,"mass_kg":null,"dimensions":null,"purposes":[],"wikipedia_slug":null,"has_3d_model":false,"image_url":null,"decayed_at":null,"tle_current":{"epoch":"2026-09-20T04:37:41.465856Z","epoch_age_seconds":52017,"freshness":"FRESH","line1":"1 69776U 26151P   26263.19284104  .00001968  00000+0  28687-3 0  9995","line2":"2 69776  51.8989 225.5564 0000475 172.2909 187.8061 14.79955045 12195","mean_motion":14.79955045,"eccentricity":4.75e-5,"inclination_deg":51.8989,"raan_deg":225.5564,"arg_perigee_deg":172.2909,"mean_anomaly_deg":187.8061,"bstar":0.00028687,"rev_number":1219,"period_min":97.300252792476,"perigee_km":629.13317829222,"apogee_km":629.79890058097,"semimajor_km":7007.6030394366,"source":"CELESTRAK","updated_at":"2026-09-20T09:00:25.091786Z"}}}